Clear Lake, IA

12:12 PM CST on December 03, 2016 (GMT -0600)
Mason City Municipal

Weather History for KMCW - April, 2012

Change the Weather History Date:

Thursday, April 26, 2012

  Actual Average Record
Temperature  
Mean Temperature 52 °F 51 °F  
Max Temperature 61 °F 63 °F 87 °F (1962)
Min Temperature 45 °F 39 °F 23 °F (2002)
Degree Days  
Heating Degree Days 12 14  
Month to date heating degree days 503  
Since 1 July heating degree days 7348  
Cooling Degree Days 0 0  
Month to date cooling degree days 0  
Year to date cooling degree days 0  
Growing Degree Days 2 (Base 50)    
Moisture  
Dew Point 34 °F    
Average Humidity 53    
Maximum Humidity 89    
Minimum Humidity 24    
Precipitation  
Precipitation 0.00 in 0.13 in 2.14 in (1988)
Month to date precipitation 3.19  
Year to date precipitation 7.24  
Snow  
Snow 0.00 in 0.00 in 4.60 in (1988)
Month to date snowfall 2.6  
Since 1 July snowfall 41.1  
Snow Depth -    
Sea Level Pressure  
Sea Level Pressure 30.00 in    
Wind  
Wind Speed 13 mph (NNE)    
Max Wind Speed 20 mph    
Max Gust Speed 30 mph    
Visibility 10 miles    
Events      
T = Trace of Precipitation, MM = Missing Value Source: NWS Daily Summary

Daily Weather History Graph

Daily Weather History Graph

Search for Another Location

Airport or City:

Trip Planner

Search our weather history database for the weather conditions in past years. The results will help you decide how hot, cold, wet, or windy it might be!

Date:

Astronomy

Apr. 26, 2012 Rise Set
Actual Time 6:13 AM CDT 8:09 PM CDT
Civil Twilight 5:42 AM CDT 8:40 PM CDT
Nautical Twilight 5:05 AM CDT 9:17 PM CDT
Astronomical Twilight 4:24 AM CDT 9:58 PM CDT
Moon 9:49 AM CDT (4/26) 12:18 AM CDT (4/26)
Length of Visible Light 14h 57m
Length of Day
13h 56m
Waxing Crescent, 24% of the Moon is Illuminated
Apr 26
Waxing Crescent
Apr 29
First Quarter
May 5
Full
May 12
Last Quarter
May 20
New

Hourly Weather History & Observations

Time (CDT) Temp. Windchill Dew Point Humidity Pressure Visibility Wind Dir Wind Speed Gust Speed Precip Events Conditions
12:53 AM 54.0 °F - 50.0 °F 86% 29.75 in 9.0 mi West 5.8 mph - N/A   Clear
1:53 AM 52.0 °F - 48.9 °F 89% 29.76 in 8.0 mi West 8.1 mph - N/A   Clear
2:53 AM 55.9 °F - 48.9 °F 77% 29.78 in 10.0 mi NNW 12.7 mph - N/A   Clear
3:53 AM 53.1 °F - 48.9 °F 86% 29.82 in 8.0 mi North 19.6 mph 29.9 mph N/A   Clear
4:53 AM 50.0 °F - 45.0 °F 83% 29.87 in 10.0 mi North 17.3 mph - N/A   Clear
5:53 AM 46.9 °F - 42.1 °F 83% 29.92 in 10.0 mi North 15.0 mph - N/A   Clear
6:53 AM 46.9 °F - 41.0 °F 80% 29.95 in 10.0 mi North 16.1 mph - N/A   Clear
7:53 AM 50.0 °F - 39.9 °F 68% 29.98 in 10.0 mi North 18.4 mph 24.2 mph N/A   Clear
8:53 AM 52.0 °F - 39.0 °F 61% 30.00 in 10.0 mi NNE 19.6 mph - N/A   Clear
9:53 AM 54.0 °F - 37.9 °F 55% 30.03 in 10.0 mi NNE 19.6 mph - N/A   Partly Cloudy
10:53 AM 55.0 °F - 37.0 °F 51% 30.05 in 10.0 mi North 16.1 mph 26.5 mph N/A   Scattered Clouds
11:53 AM 57.9 °F - 30.9 °F 36% 30.06 in 10.0 mi NNE 18.4 mph 24.2 mph N/A   Clear
12:53 PM 57.9 °F - 33.1 °F 39% 30.07 in 10.0 mi NE 13.8 mph 25.3 mph N/A   Clear
1:53 PM 59.0 °F - 25.0 °F 27% 30.08 in 10.0 mi NNE 11.5 mph 23.0 mph N/A   Clear
2:53 PM 60.1 °F - 27.0 °F 28% 30.08 in 10.0 mi NNE 13.8 mph 25.3 mph N/A   Clear
3:53 PM 60.1 °F - 24.1 °F 25% 30.08 in 10.0 mi NNE 9.2 mph 20.7 mph N/A   Clear
4:53 PM 60.1 °F - 23.0 °F 24% 30.09 in 10.0 mi NNE 13.8 mph 19.6 mph N/A   Clear
5:53 PM 59.0 °F - 23.0 °F 25% 30.09 in 10.0 mi NNE 11.5 mph - N/A   Clear
6:53 PM 57.0 °F - 23.0 °F 27% 30.09 in 10.0 mi NE 12.7 mph - N/A   Clear
7:53 PM 54.0 °F - 24.1 °F 31% 30.11 in 10.0 mi NE 11.5 mph - N/A   Clear
8:53 PM 46.9 °F - 26.1 °F 44% 30.12 in 10.0 mi ENE 6.9 mph - N/A   Clear
10:53 PM 45.0 °F 40.1 °F 26.1 °F 48% 30.14 in 10.0 mi ENE 9.2 mph - N/A   Clear
11:53 PM 45.0 °F 39.3 °F 24.1 °F 44% 30.14 in 10.0 mi East 11.5 mph - N/A   Clear